| time (UTC) | temp F | wind direction | speed MPH | gust MPH | rain 1hr in | rain 24hr in | rain mn in | humidity % | barometer mb |
| 20260504190029 | 54 | 234 | 4.0 | 15.0 | 0.00 | 0.00 | 0.00 | 55 | 1005.1 |
| 20260504184540 | 54 | 262 | 2.0 | 11.0 | 0.00 | 0.00 | 0.00 | 54 | 1005.1 |
| 20260504183028 | 55 | 210 | 5.0 | 14.0 | 0.00 | 0.00 | 0.00 | 52 | 1004.9 |
| 20260504181527 | 56 | 274 | 4.0 | 13.0 | 0.00 | 0.00 | 0.00 | 50 | 1004.7 |
| 20260504180033 | 57 | 285 | 1.0 | 7.0 | 0.00 | 0.00 | 0.00 | 49 | 1004.6 |
| 20260504174525 | 58 | 299 | 2.0 | 13.0 | 0.00 | 0.00 | 0.00 | 46 | 1004.5 |
| 20260504173024 | 60 | 232 | 5.0 | 13.0 | 0.00 | 0.00 | 0.00 | 44 | 1004.3 |
| 20260504171525 | 60 | 229 | 3.0 | 14.0 | 0.00 | 0.00 | 0.00 | 43 | 1004.4 |
| 20260504081543 | 57 | 258 | 0.0 | 7.0 | 0.00 | 0.00 | 0.00 | 57 | 1005.2 |
| 20260504050018 | 48 | 301 | 0.0 | 0.0 | 0.00 | 0.00 | 0.00 | 87 | 1004.2 |
| 20260504044517 | 47 | 283 | 0.0 | 0.0 | 0.00 | 0.00 | 0.00 | 88 | 1004.1 |
| 20260504043017 | 48 | 301 | 0.0 | 0.0 | 0.00 | 0.00 | 0.00 | 89 | 1004.0 |
| 20260504041516 | 48 | 298 | 0.0 | 0.0 | 0.00 | 0.00 | 0.00 | 90 | 1004.1 |
| 20260504040016 | 48 | 301 | 0.0 | 0.0 | 0.00 | 0.00 | 0.00 | 90 | 1004.1 |
| 20260504034518 | 47 | 295 | 0.0 | 0.0 | 0.00 | 0.00 | 0.00 | 90 | 1004.2 |
| 20260504033012 | 47 | 266 | 0.0 | 0.0 | 0.00 | 0.00 | 0.00 | 90 | 1004.3 |
| 20260504031512 | 48 | 299 | 0.0 | 0.0 | 0.00 | 0.00 | 0.00 | 90 | 1004.3 |
| 20260504030010 | 48 | 298 | 0.0 | 0.0 | 0.00 | 0.00 | 0.00 | 90 | 1004.3 |
| 20260504024511 | 48 | 311 | 0.0 | 0.0 | 0.00 | 0.00 | 0.00 | 90 | 1004.5 |
| 20260504023008 | 48 | 295 | 0.0 | 0.0 | 0.00 | 0.00 | 0.00 | 90 | 1004.5 |
| 20260504021506 | 48 | 247 | 0.0 | 0.0 | 0.00 | 0.00 | 0.00 | 90 | 1004.6 |
| 20260504020006 | 48 | 247 | 0.0 | 0.0 | 0.00 | 0.00 | 0.00 | 89 | 1004.7 |
| 20260504014504 | 48 | 247 | 0.0 | 0.0 | 0.00 | 0.00 | 0.00 | 89 | 1004.6 |
| 20260504013004 | 48 | 267 | 0.0 | 0.0 | 0.00 | 0.00 | 0.00 | 89 | 1004.7 |
| 20260504011502 | 48 | 266 | 0.0 | 0.0 | 0.00 | 0.00 | 0.00 | 89 | 1004.9 |
| 20260504010001 | 48 | 230 | 0.0 | 0.0 | 0.00 | 0.00 | 0.00 | 90 | 1004.9 |
| 20260504004559 | 49 | 226 | 0.0 | 0.0 | 0.00 | 0.00 | 0.00 | 90 | 1005.1 |
| 20260504003058 | 49 | 226 | 0.0 | 0.0 | 0.00 | 0.00 | 0.00 | 90 | 1005.1 |
| 20260504001557 | 49 | 218 | 0.0 | 0.0 | 0.00 | 0.00 | 0.00 | 90 | 1005.2 |
| 20260504000134 | 49 | 218 | 0.0 | 2.0 | 0.00 | 0.00 | 0.00 | 90 | 1005.4 |
| 20260503234553 | 49 | 218 | 1.0 | 5.0 | 0.00 | 0.00 | 0.00 | 90 | 1005.6 |
| 20260503233051 | 49 | 223 | 3.0 | 5.0 | 0.00 | 0.00 | 0.00 | 90 | 1005.6 |
| 20260503231550 | 49 | 210 | 2.0 | 6.0 | 0.00 | 0.00 | 0.00 | 90 | 1005.7 |
| 20260503230054 | 49 | 214 | 2.0 | 5.0 | 0.00 | 0.00 | 0.00 | 90 | 1005.9 |
| 20260503224546 | 50 | 210 | 1.0 | 4.0 | 0.00 | 0.00 | 0.00 | 90 | 1006.1 |
| 20260503223044 | 50 | 210 | 2.0 | 5.0 | 0.00 | 0.00 | 0.00 | 90 | 1006.2 |
| 20260503221541 | 50 | 219 | 0.0 | 0.0 | 0.00 | 0.00 | 0.00 | 90 | 1006.3 |
| 20260503220040 | 51 | 219 | 0.0 | 0.0 | 0.00 | 0.00 | 0.00 | 90 | 1006.4 |
| 20260503214538 | 51 | 216 | 0.0 | 0.0 | 0.00 | 0.00 | 0.00 | 89 | 1006.4 |
| 20260503213037 | 51 | 216 | 0.0 | 0.0 | 0.00 | 0.00 | 0.00 | 89 | 1006.5 |
| 20260503211537 | 51 | 216 | 0.0 | 0.0 | 0.00 | 0.00 | 0.00 | 90 | 1006.5 |
| 20260503210037 | 51 | 216 | 0.0 | 0.0 | 0.00 | 0.00 | 0.00 | 90 | 1006.5 |
| 20260503204535 | 51 | 216 | 0.0 | 0.0 | 0.00 | 0.01 | 0.00 | 91 | 1006.6 |
| 20260503203041 | 50 | 216 | 0.0 | 3.0 | 0.00 | 0.01 | 0.00 | 91 | 1006.7 |
| 20260503201532 | 50 | 216 | 1.0 | 5.0 | 0.00 | 0.01 | 0.00 | 91 | 1006.8 |
| 20260503200031 | 51 | 237 | 2.0 | 6.0 | 0.00 | 0.01 | 0.00 | 91 | 1007.1 |
| 20260503194531 | 51 | 181 | 2.0 | 5.0 | 0.00 | 0.03 | 0.00 | 91 | 1007.2 |
| 20260503193030 | 51 | 210 | 2.0 | 5.0 | 0.00 | 0.03 | 0.00 | 91 | 1007.3 |
| 20260503191528 | 51 | 220 | 2.0 | 5.0 | 0.00 | 0.03 | 0.00 | 91 | 1007.4 |